[[{"header":{"parameterUnit":"m.s-1","parameterCategory":1,"la1":30.2991,"la2":30.254,"lo1":-89.0895,"lo2":-89.0444,"dy":0.0017,"dx":0.0017,"nx":28,"ny":28,"refTime":"2024-03-11T09:00:00:Z","depth":0,"parameterNumber":2,"parameterNumberName":"U-component_of_WINDS"},"data":[0,0,0,0,0,0,0,0,0,0,0,0,0,0,0,0,0,0,0,0,0,0,0,0,0,0,0,0,0,0,0,0,0,0,0,0,0,0,0,0,0,0,0,0,0,0,0,0,0,0,0,0,0,0,0,0,0,0,-1.2293,-1.2293,0,-1.2347,-1.2347,-1.2348,-1.2331,-1.233,-1.2329,-1.2327,-1.2384,-1.2387,-1.2389,0,0,0,0,0,0,0,0,0,0,0,0,0,-1.2175,-1.2177,-1.2293,-1.2293,-1.2294,-1.2346,-1.2347,-1.2348,-1.2331,-1.233,-1.2328,-1.2327,-1.2383,-1.2386,-1.2389,0,0,0,0,0,0,0,0,0,0,0,0,0,-1.2227,-1.2178,-1.2293,-1.2292,-1.2292,-1.2346,-1.2347,-1.2348,-1.2331,-1.233,-1.2328,-1.2326,-1.2382,-1.2386,-1.239,-1.2448,0,0,-1.2402,-1.2403,0,0,0,0,0,0,0,0,-1.2224,-1.2232,-1.2291,-1.2292,-1.2293,-1.233,-1.2326,-1.2382,-1.2332,-1.2317,-1.2327,-1.2325,-1.2368,-1.2373,-1.2387,-1.2451,-1.2453,-1.2402,-1.2404,-1.2406,-1.2407,0,0,0,0,0,0,0,-1.2221,-1.2229,-1.2314,-1.2292,-1.2293,-1.2289,-1.2294,-1.2337,-1.2351,-1.2318,-1.2317,-1.2323,-1.2368,-1.2383,-1.2388,-1.2454,-1.2402,-1.2405,-1.2408,-1.2409,-1.2567,-1.2568,0,0,0,0,0,0,-1.2217,-1.2226,-1.2312,-1.2316,-1.2253,-1.2292,-1.2298,-1.232,-1.2351,-1.2354,-1.2325,-1.2322,-1.2377,-1.2383,-1.239,-1.2459,-1.2406,-1.241,-1.2412,-1.2565,-1.2567,-1.2569,0,0,0,0,0,0,-1.2214,-1.2224,-1.231,-1.2271,-1.2281,-1.2296,-1.232,-1.2322,-1.2337,-1.2356,-1.2358,-1.2337,-1.2376,-1.2384,-1.2433,-1.246,-1.2411,-1.2415,-1.2563,-1.2565,-1.2568,-1.2598,0,0,0,0,0,0,-1.2211,-1.2224,-1.2246,-1.2271,-1.2283,-1.2353,-1.2322,-1.2324,-1.2343,-1.2341,-1.2369,-1.2372,-1.2375,-1.2427,-1.2437,-1.2465,-1.2418,-1.256,-1.2564,-1.2567,-1.2594,-1.2601,-1.2607,0,0,0,0,0,-1.2207,-1.2253,-1.2247,-1.2258,-1.2312,-1.2355,-1.2361,-1.2364,-1.2346,-1.2368,-1.238,-1.2371,-1.2456,-1.2433,-1.2443,-1.2473,-1.2558,-1.2563,-1.2567,-1.2592,-1.26,-1.2607,0,0,0,0,0,0,-1.2232,-1.2257,-1.225,-1.2307,-1.2328,-1.2352,-1.238,-1.2373,-1.2402,-1.2398,-1.2401,-1.2407,-1.2457,-1.247,-1.2444,-1.2529,-1.2504,-1.2511,-1.2519,-1.2527,-1.2534,-1.253,-1.2421,0,0,0,0,0,-1.2244,-1.2277,-1.2296,-1.2344,-1.2355,-1.2366,-1.2385,-1.2385,-1.2408,-1.2417,-1.2432,-1.2455,-1.2487,-1.2508,-1.2538,-1.2596,-1.2601,-1.2621,-1.2627,-1.2632,-1.2638,-1.2667,-1.2676,-1.2583,-1.2583,-1.2583,0,0,-1.227,-1.2287,-1.2308,-1.2349,-1.2366,-1.24,-1.2374,-1.2411,-1.2435,-1.2423,-1.2469,-1.2481,-1.2507,-1.256,-1.2584,-1.2572,-1.2665,-1.2638,-1.2642,-1.2645,-1.2673,-1.2682,-1.2689,-1.2585,-1.2585,-1.2585,0,0,-1.2333,-1.235,-1.2391,-1.2407,-1.2433,-1.2439,-1.2449,-1.2473,-1.248,-1.2526,-1.2517,-1.2546,-1.2601,-1.2619,-1.2635,-1.2702,-1.2694,-1.2712,-1.2745,-1.2774,-1.2781,-1.2788,-1.2811,-1.2819,-1.2718,-1.2718,-1.2718,0,-1.2362,-1.2412,-1.2413,-1.2449,-1.2467,-1.2456,-1.2497,-1.2513,-1.2548,-1.256,-1.2546,-1.2613,-1.263,-1.2686,-1.2702,-1.2716,-1.2726,-1.2709,-1.278,-1.2787,-1.2793,-1.2815,-1.2823,-1.272,-1.272,-1.2719,-1.2719,0,-1.2445,-1.2479,-1.2509,-1.2541,-1.2562,-1.2601,-1.2607,-1.2628,-1.2626,-1.2634,-1.268,-1.2699,-1.2732,-1.2745,-1.2744,-1.2801,-1.2792,-1.2779,-1.2754,-1.2804,-1.2824,-1.2833,-1.2723,-1.2722,-1.2721,-1.2721,0,0,-1.2528,-1.2558,-1.2569,-1.2582,-1.2608,-1.2634,-1.2672,-1.2703,-1.2721,-1.2744,-1.2775,-1.282,-1.2807,-1.2826,-1.2826,-1.2852,-1.2902,-1.2835,-1.2836,-1.2846,-1.2963,-1.2973,-1.2983,-1.2896,-1.2898,-1.2899,-1.2961,0,-1.2593,-1.2658,-1.2659,-1.2718,-1.2749,-1.2738,-1.277,-1.2789,-1.2797,-1.2824,-1.2832,-1.2864,-1.2845,-1.2856,-1.288,-1.289,-1.2925,-1.2886,-1.2924,-1.2926,-1.2918,-1.2994,-1.3004,-1.3062,-1.2969,-1.297,-1.2971,0,-1.2678,-1.2702,-1.2765,-1.2784,-1.2797,-1.2826,-1.2853,-1.2879,-1.29,-1.2904,-1.2923,-1.2919,-1.2956,-1.2929,-1.298,-1.2953,-1.2969,-1.2976,-1.2978,-1.2982,-1.2952,-1.2999,-1.3081,-1.3089,-1.2984,-1.2983,-1.2982,0,-1.2731,-1.2779,-1.2822,-1.2834,-1.2858,-1.2878,-1.2889,-1.2908,-1.2926,-1.295,-1.2962,-1.299,-1.3006,-1.3027,-1.3031,-1.3011,-1.3081,-1.3055,-1.3085,-1.3085,-1.31,-1.3099,-1.3185,-1.3111,-1.3111,-1.3111,-1.311,0,-1.2803,-1.2842,-1.2846,-1.2873,-1.2915,-1.2915,-1.2956,-1.2966,-1.2982,-1.301,-1.3002,-1.3028,-1.3031,-1.3058,-1.306,-1.3101,-1.3108,-1.3112,-1.3112,-1.3113,-1.3112,-1.3123,-1.3119,-1.3113,-1.3112,-1.3112,-1.3112,0,-1.287,-1.2874,-1.292,-1.2938,-1.2943,-1.2974,-1.2989,-1.3014,-1.3019,-1.3055,-1.3063,-1.3072,-1.3103,-1.3108,-1.3145,-1.3146,-1.3195,-1.3191,-1.3188,-1.3187,-1.3216,-1.3213,-1.3312,-1.3325,-1.3242,-1.3243,-1.3244,0,-1.2916,-1.2945,-1.2965,-1.2982,-1.2994,-1.3022,-1.304,-1.304,-1.3059,-1.3083,-1.3105,-1.3135,-1.3159,-1.3208,-1.3218,-1.3246,-1.3242,-1.3275,-1.3247,-1.3245,-1.3242,-1.324,-1.3242,-1.3281,-1.3282,-1.3282,-1.3283,0,-1.2996,-1.2996,-1.3022,-1.3047,-1.3068,-1.3089,-1.3108,-1.3123,-1.3126,-1.3147,-1.3178,-1.3196,-1.3232,-1.3261,-1.3288,-1.3299,-1.3291,-1.3291,-1.33,-1.33,-1.3297,-1.3298,-1.3202,-1.3289,-1.3289,-1.3288,-1.3288,-1.3288,-1.3054,-1.3078,-1.3095,-1.3123,-1.3137,-1.3155,-1.3179,-1.3186,-1.3212,-1.3241,-1.3239,-1.3273,-1.329,-1.3325,-1.3338,-1.3364,-1.3353,-1.3365,-1.3368,-1.3371,-1.3374,-1.3292,-1.3369,-1.3368,-1.3368,-1.3368,-1.3368,0,-1.3133,-1.3143,-1.3169,-1.3195,-1.3216,-1.3206,-1.3226,-1.3245,-1.3274,-1.3291,-1.3314,-1.3348,-1.3376,-1.3387,-1.3414,-1.3432,-1.3429,-1.3439,-1.3438,-1.344,-1.3382,-1.3372,-1.3441,-1.3441,-1.3441,-1.3441,-1.3441,-1.3441,-1.3177,-1.3217,-1.3219,-1.3265,-1.3275,-1.3307,-1.3319,-1.3335,-1.3348,-1.3387,-1.3409,-1.3416,-1.343,-1.3457,-1.3482,-1.3484,-1.3494,-1.3506,-1.3507,-1.3452,-1.3445,-1.3438,-1.3428,-1.3508,-1.3508,-1.3563,-1.3564,-1.3564]},{"header":{"parameterUnit":"m.s-1","parameterCategory":1,"la1":30.2991,"la2":30.254,"lo1":-89.0895,"lo2":-89.0444,"dy":0.0017,"dx":0.0017,"nx":28,"ny":28,"refTime":"2024-03-11T09:00:00:Z","depth":0,"parameterNumber":3,"parameterNumberName":"V-component_of_WINDS"},"data":[0,0,0,0,0,0,0,0,0,0,0,0,0,0,0,0,0,0,0,0,0,0,0,0,0,0,0,0,0,0,0,0,0,0,0,0,0,0,0,0,0,0,0,0,0,0,0,0,0,0,0,0,0,0,0,0,0,0,1.2174,1.2172,0,1.2035,1.2034,1.2032,1.1936,1.1935,1.1934,1.1934,1.1785,1.1782,1.1779,0,0,0,0,0,0,0,0,0,0,0,0,0,1.2349,1.2346,1.2174,1.2172,1.217,1.2036,1.2034,1.2032,1.1936,1.1935,1.1934,1.1933,1.1786,1.1782,1.1778,0,0,0,0,0,0,0,0,0,0,0,0,0,1.2248,1.2345,1.2174,1.2107,1.2099,1.2036,1.2034,1.2031,1.1936,1.1935,1.1934,1.1933,1.1787,1.1783,1.1778,1.1769,0,0,1.1763,1.176,0,0,0,0,0,0,0,0,1.2254,1.2241,1.2118,1.2111,1.2103,1.2002,1.2041,1.1943,1.1936,1.1998,1.1934,1.1932,1.1858,1.1847,1.1823,1.1762,1.1755,1.1762,1.1759,1.1757,1.1756,0,0,0,0,0,0,0,1.2261,1.2247,1.2119,1.2117,1.2107,1.2081,1.2065,1.2022,1.1935,1.1992,1.1985,1.197,1.1853,1.1828,1.1819,1.1753,1.1762,1.1758,1.1755,1.1753,1.1676,1.1677,0,0,0,0,0,0,1.2279,1.2253,1.2123,1.2115,1.2177,1.2079,1.2061,1.2035,1.1935,1.1919,1.1971,1.1966,1.1837,1.1825,1.1813,1.1795,1.1757,1.1752,1.175,1.1675,1.1676,1.1677,0,0,0,0,0,0,1.2283,1.2269,1.2129,1.2182,1.2162,1.2077,1.2048,1.2033,1.2008,1.192,1.1903,1.1962,1.1836,1.182,1.1781,1.1788,1.175,1.1746,1.1674,1.1675,1.1676,1.176,0,0,0,0,0,0,1.2289,1.2271,1.2268,1.2183,1.216,1.2101,1.2049,1.2031,1.2,1.1993,1.1907,1.1891,1.1834,1.1789,1.1776,1.1781,1.1742,1.1673,1.1674,1.1676,1.1756,1.1764,1.177,0,0,0,0,0,1.2296,1.2296,1.2268,1.2253,1.2155,1.2102,1.2088,1.2024,1.2002,1.1997,1.194,1.1894,1.179,1.1785,1.177,1.1774,1.1672,1.1674,1.1676,1.1752,1.1762,1.177,0,0,0,0,0,0,1.2382,1.2283,1.2252,1.2225,1.2173,1.2086,1.2078,1.2036,1.1987,1.1982,1.1902,1.1883,1.1852,1.1809,1.1805,1.1759,1.1725,1.1724,1.1789,1.1797,1.1804,1.1815,1.1738,0,0,0,0,0,1.2398,1.2365,1.228,1.2264,1.224,1.2164,1.2138,1.2093,1.2035,1.2011,1.1952,1.1895,1.1849,1.1821,1.1774,1.1749,1.1728,1.1744,1.1752,1.1758,1.1758,1.174,1.1746,1.1684,1.1684,1.1684,0,0,1.243,1.2373,1.2356,1.228,1.2234,1.22,1.2146,1.2111,1.2084,1.2005,1.1965,1.1919,1.185,1.1818,1.1801,1.1781,1.1771,1.1761,1.1767,1.1763,1.1743,1.1749,1.1755,1.1685,1.1685,1.1685,0,0,1.2472,1.2426,1.2407,1.2363,1.2295,1.2245,1.224,1.2159,1.2127,1.2086,1.2025,1.1991,1.1914,1.1868,1.1834,1.1858,1.1813,1.1845,1.1883,1.1867,1.1872,1.1876,1.1883,1.1887,1.1845,1.1846,1.1846,0,1.252,1.2468,1.2402,1.2372,1.234,1.2269,1.2248,1.2208,1.2127,1.2106,1.2086,1.1988,1.1937,1.1892,1.1898,1.1874,1.1865,1.1854,1.1877,1.188,1.1883,1.1889,1.1892,1.185,1.1849,1.1849,1.1848,0,1.253,1.2495,1.2488,1.2414,1.2381,1.2356,1.2284,1.2258,1.2216,1.2167,1.2125,1.2061,1.2,1.1986,1.1944,1.1935,1.1925,1.1892,1.1856,1.1894,1.1898,1.19,1.1856,1.1854,1.1853,1.1852,0,0,1.2621,1.2513,1.2511,1.2476,1.2397,1.2367,1.2338,1.228,1.2259,1.2205,1.2178,1.2115,1.2084,1.2046,1.1998,1.1984,1.2006,1.1952,1.1949,1.1963,1.1991,1.2015,1.2019,1.1976,1.1976,1.1977,1.1996,0,1.2649,1.2596,1.2536,1.2502,1.2468,1.24,1.2374,1.2322,1.2275,1.2237,1.2185,1.2141,1.2104,1.2081,1.2064,1.2007,1.201,1.2005,1.1947,1.1946,1.1966,1.2022,1.2048,1.2069,1.1997,1.1998,1.1998,0,1.2675,1.2628,1.2592,1.2515,1.2498,1.2476,1.2418,1.2384,1.2322,1.2289,1.2247,1.2196,1.216,1.2129,1.2077,1.2075,1.2047,1.2016,1.2015,1.2006,1.1974,1.2013,1.2074,1.2077,1.2,1.2,1.2,0,1.2744,1.2671,1.2639,1.2612,1.2522,1.2508,1.2469,1.2407,1.2376,1.2324,1.2303,1.2248,1.2217,1.2174,1.2109,1.2093,1.2063,1.2027,1.2032,1.2034,1.2028,1.2029,1.2085,1.2013,1.2013,1.2013,1.2013,0,1.2781,1.2761,1.2669,1.265,1.2625,1.2555,1.2532,1.2486,1.2431,1.24,1.2338,1.231,1.2226,1.2187,1.2136,1.2099,1.2086,1.2057,1.2043,1.2062,1.2065,1.2042,1.2038,1.2014,1.2014,1.2014,1.2013,0,1.2853,1.2791,1.2752,1.2671,1.265,1.2635,1.2564,1.2541,1.2492,1.2453,1.244,1.2361,1.2312,1.2243,1.2173,1.2138,1.2108,1.2087,1.213,1.2122,1.2131,1.213,1.2172,1.2173,1.2103,1.2104,1.2105,0,1.2881,1.2864,1.2781,1.2757,1.2722,1.2683,1.2652,1.2583,1.2552,1.248,1.2466,1.2413,1.2366,1.2291,1.2226,1.2171,1.2147,1.2166,1.2139,1.2158,1.2146,1.2147,1.2145,1.2172,1.2173,1.2174,1.2175,0,1.2936,1.2906,1.2864,1.2812,1.2777,1.2732,1.2684,1.2667,1.2587,1.2555,1.2506,1.247,1.2399,1.2346,1.2283,1.224,1.2193,1.2185,1.2182,1.2201,1.2226,1.2211,1.2147,1.2183,1.2182,1.2182,1.2181,1.2181,1.2985,1.2967,1.2906,1.2862,1.2819,1.2775,1.275,1.2698,1.2656,1.2594,1.2555,1.2507,1.2444,1.2355,1.2315,1.2275,1.2256,1.2253,1.2252,1.2252,1.2258,1.2234,1.2263,1.2263,1.2262,1.2262,1.2262,0,1.3035,1.2993,1.2953,1.2889,1.2854,1.2816,1.276,1.2732,1.2692,1.2638,1.2595,1.2537,1.2486,1.2418,1.2361,1.2342,1.2319,1.2329,1.2329,1.2319,1.2279,1.2286,1.2348,1.2348,1.2348,1.2348,1.2348,1.2348,1.3057,1.3025,1.2988,1.2932,1.2889,1.2844,1.2815,1.2774,1.2731,1.267,1.2628,1.2585,1.2524,1.2463,1.2413,1.2394,1.2375,1.2392,1.2366,1.233,1.2322,1.2315,1.2321,1.2389,1.2389,1.2409,1.241,1.241]}]]